Stations météo

réclame
Mon MeteoGroup
Ahaus, Allemagne (10309): Température de l'air & dewpoint: 15.08.2018 06:00:00 - 21.08.2018 06:00:00 (CEST)Ahaus, Allemagne (10309): Température de l'air 5cm & Température de l'air -5cm: 15.08.2018 06:00:00 - 21.08.2018 06:00:00 (CEST)Ahaus, Allemagne (10309): Température de l'air -20cm & Température de l'air -100cm: 15.08.2018 06:00:00 - 21.08.2018 06:00:00 (CEST)Ahaus, Allemagne (10309): Vitesse du vent & gusts: 15.08.2018 06:00:00 - 21.08.2018 06:00:00 (CEST)Ahaus, Allemagne (10309): Direction du vent: 15.08.2018 06:00:00 - 21.08.2018 06:00:00 (CEST)Ahaus, Allemagne (10309): reduced air pressure: 15.08.2018 06:00:00 - 21.08.2018 06:00:00 (CEST)Ahaus, Allemagne (10309): visibility: 15.08.2018 06:00:00 - 21.08.2018 06:00:00 (CEST)Ahaus, Allemagne (10309): Ensoleillement: 15.08.2018 06:00:00 - 21.08.2018 06:00:00 (CEST)Ahaus, Allemagne (10309): Quantités de précipitations: 15.08.2018 06:00:00 - 21.08.2018 06:00:00 (CEST)
Date & Time tt [°C] td [°C] tt 5cm [°C] tt -5cm [°C] tt -20cm [°C] tt -100cm [°C] ff [km/h] ff [knt] fx [km/h] fx [knt] dd ppp [hPa] vv [km] sd [min] rr [mm]
21.08.2018 06:00:00 14,3 13,8 14,2 18,1 20,2 19,7 2 1 4 2 NE 1020,8 11 0 0,0
21.08.2018 05:00:00 13,6 13,3 12,9 17,9 20,4 19,7 3 1 19 10 ENE 1021,0 12 0 0,0
21.08.2018 04:00:00 13,4 13,3 12,3 18,0 20,7 19,7 3 2 19 10 SSE 1021,1 3,6 0 0,0
21.08.2018 03:00:00 13,1 13,0 10,6 18,3 20,9 19,7 3 2 19 10 SSE 1021,1 0,4 0 0,0
21.08.2018 02:00:00 13,7 13,2 11,0 18,8 21,2 19,7 4 2 19 10 W 1021,0 12 0 0,0
21.08.2018 01:00:00 15,2 14,6 11,7 19,3 21,4 19,7 4 2 6 3 N 1021,0 19 0 0,0
21.08.2018 00:00:00 15,3 14,8 12,0 19,9 21,7 19,7 3 2 5 3 WSW 1020,7 12 0 0,0
20.08.2018 23:00:00 15,9 14,7 13,0 20,6 21,9 19,7 4 2 19 10 WNW 1020,6 27 0 0,0
20.08.2018 22:00:00 17,6 15,5 14,3 21,5 22,0 19,7 2 1 8 5 SSW 1020,5 45 0 0,0
20.08.2018 21:00:00 20,3 15,8 19,0 22,5 22,1 19,7 6 3 16 8 NW 1020,0 53 12 0,0
20.08.2018 20:00:00 21,1 15,4 22,3 23,0 22,2 19,7 8 5 14 8 WNW 1019,6 46 17 0,0
20.08.2018 19:00:00 20,7 15,7 21,3 23,6 22,1 19,7 10 5 22 12 NW 1019,6 48 0 0,0
20.08.2018 18:00:00 21,7 14,8 23,2 24,2 22,1 19,7 11 6 24 13 WNW 1019,7 51 0 0,0
20.08.2018 17:00:00 21,7 14,6 23,0 24,8 21,9 19,7 11 6 27 14 NW 1019,7 66 1 0,0
20.08.2018 16:00:00 22,9 14,7 25,9 25,4 21,6 19,7 15 8 26 14 NW 1019,4 42 6 0,0
20.08.2018 15:00:00 23,1 14,2 26,5 24,7 21,3 19,7 16 9 29 16 WNW 1019,5 28 15 0,0
20.08.2018 14:00:00 22,0 15,6 24,5 23,3 21,2 19,7 14 7 23 12 WNW 1019,5 28 0 0,0
20.08.2018 13:00:00 20,6 17,1 22,6 22,3 21,1 19,7 9 5 17 9 W 1019,4 11 0 0,0
20.08.2018 12:00:00 19,9 17,6 20,7 22,1 21,0 19,8 8 5 21 12 WSW 1019,4 8 0 0,0
20.08.2018 11:00:00 20,8 16,9 22,1 22,1 20,9 19,8 9 5 20 11 WSW 1019,1 9 0 0,0
20.08.2018 10:00:00 20,8 17,2 23,1 21,3 20,9 19,8 9 5 18 10 WSW 1018,7 8 1 0,0
20.08.2018 09:00:00 19,1 16,8 19,8 20,5 21,0 19,8 12 6 18 10 WSW 1018,4 7 0 0,0
20.08.2018 08:00:00 19,0 16,5 19,1 20,3 21,0 19,8 11 6 18 10 SW 1017,9 8 0 0,0
20.08.2018 07:00:00 18,9 16,5 18,7 20,3 21,1 19,8 10 6 21 12 SW 1017,4 11 0 0,0
20.08.2018 06:00:00 18,9 16,3 18,6 20,4 21,3 19,8 7 4 19 10 SW 1017,4 12 0 0,0
20.08.2018 05:00:00 19,0 16,1 18,8 20,6 21,4 19,8 9 5 16 9 WSW 1017,7 14 0 0,0
20.08.2018 04:00:00 19,1 16,0 18,8 20,8 21,5 19,8 9 5 18 10 SW 1017,8 16 0 0,0
20.08.2018 03:00:00 19,2 15,8 18,9 21,0 21,6 19,8 9 5 19 11 W 1017,8 17 0 0,0
20.08.2018 02:00:00 19,7 15,7 19,3 21,2 21,8 19,8 10 5 26 14 W 1018,1 15 0 0,0
20.08.2018 01:00:00 20,1 15,8 19,7 21,5 21,9 19,8 10 5 24 13 W 1018,0 11 0 0,0
20.08.2018 00:00:00 20,9 15,6 20,5 21,8 22,1 19,8 11 6 21 11 W 1017,9 21 0 0,0
19.08.2018 23:00:00 21,4 15,3 20,8 22,2 22,2 19,8 9 5 16 9 WSW 1017,6 21 0 0,0
19.08.2018 22:00:00 21,8 15,3 21,1 22,8 22,4 19,8 8 4 17 9 W 1017,7 26 0 0,0
19.08.2018 21:00:00 22,3 15,1 21,7 23,5 22,5 19,9 8 4 27 15 W 1017,7 26 0 0,0
19.08.2018 20:00:00 22,9 14,6 22,3 24,6 22,4 19,9 14 8 31 17 W 1017,7 38 37 0,0
19.08.2018 19:00:00 24,4 14,1 26,1 25,6 22,3 19,9 13 7 29 16 SW 1017,6 35 60 0,0
19.08.2018 18:00:00 24,2 13,5 27,1 26,5 22,0 19,9 20 11 39 21 SW 1018,0 30 60 0,0
19.08.2018 17:00:00 24,2 13,3 27,9 27,0 21,6 19,9 16 9 36 19 WSW 1018,3 29 60 0,0
19.08.2018 16:00:00 23,8 12,8 29,4 27,0 21,1 19,9 18 10 34 18 SW 1018,7 21 60 0,0
19.08.2018 15:00:00 23,3 12,6 29,3 26,3 20,7 19,9 18 10 32 18 SSW 1019,4 22 60 0,0
19.08.2018 14:00:00 22,4 12,0 27,2 24,6 20,2 19,9 14 8 37 20 WSW 1019,9 23 40 0,0
19.08.2018 13:00:00 21,2 12,1 24,4 23,2 19,9 19,9 16 9 35 19 SW 1020,4 36 46 0,0
19.08.2018 12:00:00 19,8 12,3 22,6 21,8 19,6 19,9 18 10 36 20 SW 1021,0 26 19 0,0
19.08.2018 11:00:00 19,6 12,5 23,0 20,8 19,4 19,9 19 11 38 21 SW 1021,2 30 44 0,0
19.08.2018 10:00:00 19,2 12,5 22,2 19,6 19,3 19,9 19 10 31 17 SW 1021,1 33 59 0,0
19.08.2018 09:00:00 17,5 13,5 19,8 18,1 19,3 19,9 12 6 19 11 SW 1021,3 20 57 0,0
19.08.2018 08:00:00 15,1 13,5 14,2 17,1 19,4 20,0 9 5 14 8 SSW 1021,4 11 0 0,0
19.08.2018 07:00:00 13,9 13,2 13,5 16,7 19,6 20,0 5 3 8 4 S 1021,4 6 0 0,0
19.08.2018 06:00:00 12,8 12,2 10,8 16,8 19,9 20,0 5 3 8 4 S 1021,4 4,4 0 0,0
19.08.2018 05:00:00 13,0 12,5 10,0 17,2 20,1 20,0 5 3 7 4 S 1021,7 3,9 0 0,0
19.08.2018 04:00:00 13,7 13,1 11,4 17,7 20,3 20,0 4 2 8 4 S 1021,8 4,6 0 0,0
19.08.2018 03:00:00 13,6 12,9 11,7 17,9 20,6 20,0 3 2 7 4 SSE 1022,2 5 0 0,0
19.08.2018 02:00:00 13,9 13,1 11,7 18,3 20,8 20,0 3 2 5 3 SSE 1022,3 7 0 0,0
19.08.2018 01:00:00 14,2 13,4 11,9 18,8 21,1 20,0 5 3 7 4 S 1022,4 6 0 0,0
19.08.2018 00:00:00 14,5 13,4 12,3 19,4 21,3 20,0 4 2 4 2 S 1022,2 7 0 0,0
18.08.2018 23:00:00 16,3 13,9 13,0 20,1 21,6 20,0 4 2 6 4 S 1022,0 11 0 0,0
18.08.2018 22:00:00 18,0 13,8 14,9 21,0 21,7 20,0 4 2 17 9 WSW 1022,0 17 0 0,0
18.08.2018 21:00:00 20,1 13,5 19,4 21,9 21,8 20,1 8 4 15 8 W 1021,7 21 0 0,0
18.08.2018 20:00:00 20,7 13,3 20,1 22,8 21,9 20,1 8 4 21 11 W 1021,5 21 2 0,0
18.08.2018 19:00:00 21,7 12,6 23,3 23,8 21,8 20,1 12 7 25 14 WNW 1021,3 28 13 0,0
18.08.2018 18:00:00 22,0 12,7 23,8 24,4 21,7 20,1 16 9 27 15 W 1021,3 36 12 0,0
18.08.2018 17:00:00 22,1 13,1 24,2 25,0 21,4 20,1 15 8 28 15 W 1021,3 31 8 0,0
18.08.2018 16:00:00 22,7 12,0 25,4 25,7 21,0 20,1 14 8 29 16 W 1021,3 48 36 0,0
18.08.2018 15:00:00 23,5 10,9 28,9 25,4 20,5 20,1 16 9 33 18 SW 1021,4 40 60 0,0
18.08.2018 14:00:00 22,6 9,6 27,7 24,5 20,1 20,1 17 9 31 17 WSW 1021,8 26 60 0,0
18.08.2018 13:00:00 22,3 10,3 27,9 23,5 19,6 20,1 22 12 39 21 SSW 1021,9 21 60 0,0
18.08.2018 12:00:00 21,3 10,8 25,9 21,8 19,3 20,1 22 12 45 25 SW 1022,1 29 59 0,0
18.08.2018 11:00:00 19,8 11,2 23,4 20,3 19,0 20,1 19 10 30 16 SW 1022,2 27 59 0,0
18.08.2018 10:00:00 18,1 11,4 20,9 18,7 18,9 20,1 16 8 23 12 SW 1022,4 26 60 0,0
18.08.2018 09:00:00 16,1 11,9 16,5 17,1 18,9 20,1 11 6 16 9 SW 1022,1 23 60 0,0
18.08.2018 08:00:00 13,2 12,1 13,9 15,4 19,1 20,1 4 2 7 4 S 1022,0 8 60 0,0
18.08.2018 07:00:00 9,0 8,8 7,4 14,8 19,4 20,1 2 1 19 10 SE 1021,7 3,1 6 0,0
18.08.2018 06:00:00 9,0 8,9 6,6 15,2 19,7 20,1 2 1 8 4 SSE 1021,6 1,6 0 0,0
18.08.2018 05:00:00 9,4 9,2 7,1 15,6 20,0 20,1 4 2 5 3 W 1021,5 6 0 0,0
18.08.2018 04:00:00 10,0 9,8 7,8 16,1 20,4 20,1 2 1 19 10 SSE 1021,5 2,5 0 0,0
18.08.2018 03:00:00 10,8 10,4 8,8 16,6 20,7 20,1 10 5 19 10 S 1021,5 3,9 0 0,0
18.08.2018 02:00:00 11,4 11,1 9,4 17,2 21,0 20,1 2 1 4 2 SE 1021,3 10 0 0,0
18.08.2018 01:00:00 12,3 11,7 10,0 17,8 21,4 20,1 4 2 19 10 E 1020,9 8 0 0,0
18.08.2018 00:00:00 12,9 11,8 10,9 18,6 21,7 20,1 4 2 19 10 ESE 1020,9 6 0 0,0
17.08.2018 23:00:00 14,4 13,1 12,3 19,3 22,0 20,1 5 3 19 10 E 1020,6 6 0 0,0
17.08.2018 22:00:00 15,1 12,8 12,5 20,2 22,3 20,1 3 2 7 4 NW 1020,2 6 0 0,0
17.08.2018 21:00:00 18,0 11,3 14,0 21,4 22,5 20,1 5 3 8 4 NW 1019,6 4,1 0 0,0
17.08.2018 20:00:00 20,8 10,6 19,7 22,7 22,6 20,1 6 4 17 9 NW 1019,0 26 49 0,0
17.08.2018 19:00:00 21,8 9,7 22,3 23,7 22,5 20,1 8 4 16 9 N 1018,7 58 25 0,0
17.08.2018 18:00:00 22,5 10,1 28,4 24,6 22,4 20,1 11 6 19 10 N 1018,7 29 59 0,0
17.08.2018 17:00:00 23,0 10,6 27,1 24,7 22,2 20,1 11 6 18 10 NW 1018,8 24 26 0,0
17.08.2018 16:00:00 21,4 9,9 24,1 26,2 21,8 20,1 9 5 34 18 NW 1018,9 53 47 0,0
17.08.2018 15:00:00 21,7 10,3 27,6 25,3 21,4 20,1 11 6 20 11 WNW 1018,9 34 41 0,0
17.08.2018 14:00:00 20,3 12,0 26,1 24,4 21,1 20,1 10 6 20 11 NNW 1018,8 39 40 0,0
17.08.2018 13:00:00 18,2 14,5 20,9 21,6 21,0 20,1 5 3 11 6 NW 1018,7 11 0 0,0
17.08.2018 12:00:00 16,8 14,9 17,8 20,8 21,0 20,1 6 3 11 6 NNW 1018,6 20 0 0,0
17.08.2018 11:00:00 16,3 15,4 17,4 19,8 21,0 20,1 5 3 11 6 WNW 1018,3 12 0 0,1
17.08.2018 10:00:00 16,0 15,2 16,3 19,4 21,2 20,1 5 3 9 5 WSW 1017,9 11 0 0,4
17.08.2018 09:00:00 15,8 15,3 15,8 19,1 21,3 20,1 4 2 11 6 SSW 1017,1 6 0 1,9
17.08.2018 08:00:00 15,7 15,2 15,6 19,2 21,6 20,2 7 4 19 10 SE 1016,7 2,8 0 2,2
17.08.2018 07:00:00 15,8 15,4 15,6 19,6 21,7 20,2 6 3 13 7 ESE 1016,3 6 0 3,5
17.08.2018 06:00:00 16,7 14,2 16,1 20,1 21,9 20,2 9 5 15 8 WNW 1015,7 16 0 0,0
17.08.2018 05:00:00 16,5 14,3 16,5 20,3 22,1 20,2 7 4 11 6 NNW 1016,2 6 0 0,0
17.08.2018 04:00:00 16,5 14,4 16,4 20,3 22,3 20,2 4 2 14 7 NW 1016,1 19 0 0,0
17.08.2018 03:00:00 16,1 14,6 15,8 20,4 22,6 20,2 10 5 17 9 NNW 1015,2 15 0 0,0
17.08.2018 02:00:00 15,8 14,2 14,8 20,7 22,9 20,2 4 2 8 5 NNW 1014,8 10 0 0,0
17.08.2018 01:00:00 16,2 14,2 15,0 21,0 23,3 20,2 4 2 7 4 ESE 1014,6 14 0 0,0
17.08.2018 00:00:00 16,4 14,1 13,4 21,6 23,7 20,2 5 3 12 6 NNE 1014,7 14 0 0,0
16.08.2018 23:00:00 16,4 13,9 13,9 22,6 24,0 20,2 4 2 8 4 N 1014,9 11 0 0,0
16.08.2018 22:00:00 17,7 14,2 14,9 23,9 24,3 20,2 4 2 7 4 N 1014,8 13 0 0,0
16.08.2018 21:00:00 21,1 14,0 18,0 25,6 24,5 20,2 6 3 19 11 N 1014,6 18 3 0,0
16.08.2018 20:00:00 23,0 13,8 23,4 27,4 24,5 20,2 12 6 21 11 NW 1014,5 17 60 0,0
16.08.2018 19:00:00 24,0 14,1 26,2 28,9 24,3 20,2 12 7 23 12 WNW 1014,4 18 58 0,0
16.08.2018 18:00:00 24,6 14,0 27,2 30,1 24,0 20,2 11 6 27 15 W 1014,5 23 58 0,0
16.08.2018 17:00:00 24,5 14,0 28,7 30,8 23,5 20,3 15 8 27 15 W 1014,6 24 60 0,0
16.08.2018 16:00:00 24,6 14,2 30,1 30,9 22,9 20,3 16 9 34 18 W 1014,8 20 57 0,0
16.08.2018 15:00:00 24,3 14,1 30,1 30,3 22,2 20,3 16 9 34 18 WSW 1015,0 25 53 0,0
16.08.2018 14:00:00 24,0 13,9 28,6 28,8 21,6 20,3 19 10 31 17 SW 1015,3 26 56 0,0
16.08.2018 13:00:00 22,8 13,5 26,6 27,1 21,1 20,3 20 11 36 19 SW 1015,6 25 44 0,0
16.08.2018 12:00:00 22,9 13,7 26,9 25,6 20,5 20,3 21 12 32 18 SW 1015,8 28 41 0,0
16.08.2018 11:00:00 21,2 14,0 23,4 24,1 20,1 20,3 18 10 32 17 SSW 1016,1 26 50 0,0
16.08.2018 10:00:00 20,1 14,4 23,0 21,5 19,9 20,3 14 8 24 13 SSW 1016,6 16 60 0,0
16.08.2018 09:00:00 18,4 14,5 20,5 19,3 19,9 20,3 12 7 21 11 S 1016,8 13 60 0,0
16.08.2018 08:00:00 16,8 14,3 16,4 17,7 20,1 20,3 9 5 16 9 S 1017,2 13 60 0,0
16.08.2018 07:00:00 15,0 13,9 13,2 17,1 20,3 20,3 6 3 11 6 S 1017,2 10 8 0,0
16.08.2018 06:00:00 15,4 14,0 13,5 17,4 20,5 20,3 7 4 13 7 S 1017,1 10 0 0,0
16.08.2018 05:00:00 15,3 14,4 13,1 17,7 20,8 20,4 7 4 13 7 S 1017,4 8 0 0,0
16.08.2018 04:00:00 15,5 14,6 13,7 18,0 21,1 20,4 8 4 10 6 S 1017,6 8 0 0,0
16.08.2018 03:00:00 15,4 14,5 12,2 18,5 21,4 20,4 4 2 6 3 S 1018,0 9 0 0,0
16.08.2018 02:00:00 15,8 14,6 12,2 19,0 21,7 20,4 4 2 8 5 S 1018,2 8 0 0,0
16.08.2018 01:00:00 16,6 14,8 14,1 19,7 22,0 20,4 7 4 10 5 SSW 1018,4 11 0 0,0
16.08.2018 00:00:00 17,2 14,8 13,7 20,4 22,2 20,4 5 3 8 5 SW 1018,5 13 0 0,0
15.08.2018 23:00:00 18,3 15,2 14,5 21,3 22,5 20,4 4 2 8 4 S 1018,3 17 0 0,0
15.08.2018 22:00:00 19,5 15,2 16,8 22,5 22,7 20,4 6 4 17 9 SSW 1018,4 19 0 0,0
15.08.2018 21:00:00 21,8 15,4 21,5 23,6 22,8 20,4 9 5 17 9 SW 1018,2 21 0 0,0
15.08.2018 20:00:00 22,4 15,5 22,4 24,6 22,8 20,5 10 6 21 11 SSW 1018,1 18 0 0,0
15.08.2018 19:00:00 22,8 15,1 23,4 25,5 22,6 20,5 12 7 24 13 SSW 1018,4 22 1 0,0
15.08.2018 18:00:00 23,0 15,4 24,2 26,5 22,4 20,5 14 7 24 13 SW 1018,5 16 1 0,0
15.08.2018 17:00:00 22,7 15,8 24,8 26,6 22,1 20,5 15 8 26 14 WSW 1018,9 13 0 0,0
15.08.2018 16:00:00 23,2 15,3 25,1 26,7 21,7 20,5 13 7 29 16 WSW 1018,7 13 0 0,0
15.08.2018 15:00:00 23,4 15,2 26,2 27,4 21,1 20,5 17 9 29 15 SW 1018,7 24 5 0,0
15.08.2018 14:00:00 23,7 16,2 28,0 26,7 20,5 20,5 16 8 25 13 SW 1018,7 19 28 0,0
15.08.2018 13:00:00 22,0 15,7 26,4 24,4 20,1 20,5 15 8 24 13 SSW 1018,9 16 13 0,0
15.08.2018 12:00:00 20,8 15,6 23,7 21,5 19,8 20,6 13 7 22 12 S 1019,0 19 1 0,0
15.08.2018 11:00:00 19,0 15,1 20,4 19,5 19,8 20,6 12 6 18 10 SSW 1019,2 19 0 0,0
15.08.2018 10:00:00 18,0 14,7 18,6 18,7 19,8 20,6 10 6 18 10 SW 1018,8 15 0 0,0
15.08.2018 09:00:00 17,3 14,2 17,4 18,2 19,9 20,6 11 6 16 9 SSW 1018,6 13 0 0,0
15.08.2018 08:00:00 17,0 14,2 17,0 17,9 20,0 20,6 9 5 14 8 SSW 1018,0 12 0 0,0
15.08.2018 07:00:00 15,8 14,0 15,6 17,5 20,1 20,6 8 4 10 5 SSW 1017,8 10 0 0,0
15.08.2018 06:00:00 15,0 13,4 12,7 17,7 20,3 20,6 5 3 9 5 SSW 1017,7 12 0 0,0

tt = Température de l'air
td = dewpoint
tt 5cm = Température de l'air 5cm
tt -5cm = Température de l'air -5cm
tt -20cm = Température de l'air -20cm
tt -100cm = Température de l'air -100cm
ff = Vitesse du vent
fx = gusts
dd = Direction du vent
ppp = reduced air pressure
vv = visibility
sd = Ensoleillement
rr = Quantités de précipitations

stations d'obs. à proximité